Weather Roundup
Issued by NWS Corpus Christi, TX

Home | Current Version | Previous Version | Text Only | Print | Product List | Glossary On
Versions: 1 2 3 4 5 6 7 8 9 10 11 12 13 14 15 16 17 18 19 20 21 22 23 24 25 26 27 28 29 30 31 32 33 34 35 36 37 38 39 40 41 42 43 44 45 46 47 48 49 50
000
ASUS44 KCRP 230510
HRRCRP

SOUTH TEXAS REGIONAL WEATHER ROUNDUP
NATIONAL WEATHER SERVICE CORPUS CHRISTI TX
1100 PM CST WED FEB 22 2017


TXZ229>244-230600-
...CORPUS CHRISTI AREA OBSERVATIONS...

CITY           SKY/WX    TMP DP  RH WIND       PRES   REMARKS
CORPUS CHRISTI CLEAR     67  56  67 SE12      29.78F
NAS CORPUS CHR CLEAR     67  63  87 SE13      29.78F
ROCKPORT       CLEAR     69  60  73 S7        29.79S
KINGSVILLE NAS CLEAR     59  54  83 S6        29.78F
ALICE            N/A     59  47  64 S6        29.78S
ORANGE GROVE     N/A     61  52  72 CALM      29.80S
FALFURRIAS     CLEAR    N/A N/A N/A SE6       29.79S
$$

...VICTORIA AREA OBSERVATIONS...

CITY           SKY/WX    TMP DP  RH WIND       PRES   REMARKS
VICTORIA         N/A     58  54  86 S3        29.79F
BEEVILLE       FAIR      61  51  69 S6        29.79S
PLEASANTON     CLEAR     63  50  62 SE5       29.78S
SAN ANTONIO    CLEAR     63  47  55 NW5       29.78F
$$

...LAREDO AREA OBSERVATIONS...

CITY           SKY/WX    TMP DP  RH WIND       PRES   REMARKS
LAREDO         CLEAR     70  44  39 SE8       29.78S
COTULLA        CLEAR     64  46  52 SE6       29.76S
DEL RIO        CLEAR     63  42  46 CALM      29.76S
MCALLEN        CLEAR     65  55  70 SE8       29.81S
HEBBRONVILLE   CLEAR     61  44  53 SW6       29.81S
$$

...OTHER TEXAS OBSERVATIONS...

CITY           SKY/WX    TMP DP  RH WIND       PRES   REMARKS
BROWNSVILLE    CLEAR     63  61  93 S6        29.82S
HOUSTON        CLEAR     64  49  57 S6        29.80S
COL. STATION   CLEAR     63  47  55 S7        29.77F
AUSTIN         CLEAR     54  48  80 CALM      29.76F
WACO           CLEAR     55  49  80 S5        29.73F
FORT WORTH     PTCLDY    65  49  56 SE5       29.70F
WICHITA FALLS  CLEAR     61  42  49 S5        29.66F
LUBBOCK        CLEAR     58  31  35 S10       29.76F
EL PASO        CLEAR     66  27  23 SW8       29.86F
$$

...MARINE OBSERVATIONS...

STATION/POSITION TIME  SKY/WX   TEMP    WIND        PRES    VSBY  WAVE   SWELL
                                AIR SEA DIR/SP/G                  HT/PER HT/PER
                 (UTC)          (F)     (DEG/KT/KT) (MB)    (MI)  (FT/S) (FT/S)
PORT ARANSAS     0500            70 70  150/ 12/ 12 1008.7F
BUOY 90 E PORT A 0350            70 70  130/  8/  8 1010.2          1
BUOY 45 SE BAFFI 0350            75     150/ 12/ 14 1008.7          1/ 3
BUOY 200 E PT IS 0350            72 74  340/  4/  6 1011.3          2/ 5   2/ 5
BUOY 15 E GALVES 0350            66 66  200/  8/ 10 1010.4          1/ 5
$$




USA.gov is the U.S. government's official web portal to all federal, state and local government web resources and services.